THOR AGENA B R/B, 426

Orbit data source: Space-Track

THOR AGENA B R/B, 426 is space debris in LEO originally from a launch on Sat, 29 Sep 1962 UTC via a THOR AGENA B launch vehicle from the Air Force Western Test Range (AFWTR). Debris objects in space refer to the collection of defunct objects orbiting the Earth. Examples of debris include non-operational satellites, rocket bodies, and fragments generated from explosions, collisions, or faulty payload assembly.

Loading next visibility...
Identifier
426, 1962-049B
Orbit
LEO
Country
Flag of USUS
Related business
Manufacturer
GSFC
Mission
Spacecraft
Bus & Motor
TAVE, Unknown motor
Mass
900 kg wet, 91 kg dry
Launch date (UTC)
1962-09-29 (63 years ago)
Launch vehicle
THOR AGENA B
Launch site
Air Force Western Test Range (AFWTR)
Object type
Payload
Rocket body
Debris
Shape & HBR
Unknown
Radar Cross Section
Large (>1 m²)

Expand to show TLE details & history
Last TLE update: 7 hours ago

TLE from 7 hours ago
0 THOR AGENA B R/B
1 00426U 62049B   25288.55215601  .00000079  00000-0  80694-4 0  9990
2 00426  80.4698 149.7415 0018127 137.4056 233.8916 13.68728292146668
Epoch: 2025-10-15T13:15Z
TLE epoch observation values (Epoch: 2025-10-15T13:15:06.279Z)
Latitude
10.92683°
Longitude
-71.51153°
Altitude
1,014.108 km
Speed
7.342 km/s
True Right ascension
10h 06m 21s
True Declination
10° 51' 55"
Sunlit
Object was in daylight at epoch
Visualization orbit readout
Latitude
Unknown
Longitude
Unknown
Altitude
Unknown
Speed
Unknown
Apparent Right ascension
Unknown
Apparent Declination
Unknown
Sunlit
N/A
Visualization observer readout
Local Sidereal Time
15:22:09
Azimuth
Unknown
Elevation
Unknown
Doppler factor
Unknown
Orbital elements
Apogee altitude
1,014.785 km
Perigee altitude
988.031 km
Semi-major axis
7,379.545 km
Eccentricity
0.00181
Inclination
80.4698°
RAAN
149.7415°
Arg. of periapsis
137.4056°
True anomaly
233.72401°
Mean anomaly
233.8916°
Eccentric anomaly
233.80778°
Mean motion
3.42372 °/min
Orbital period
105.15 mins
BSTAR
0.000080694
Loading maneuver chart data...
Computing Atmospheric mass density...
Loading historical data...
Loading historical data...
Loading historical data...
Loading historical data...
Loading historical data...
Loading historical data...
Loading historical data...
Other satellites on launch #49 in the year 1962 (1962-09-29 UTC)

Documentation

Showing up to 5 results
|